Weather History for Hearne, TX

Change the Weather History Date:

Saturday, October 6, 2012

  Actual Average (KCLL) Record (KCLL)
Temperature  
Mean Temperature 61 °F 74 °F  
Max Temperature 69 °F 84 °F 98 °F (1912)
Min Temperature 53 °F 63 °F 44 °F (1915)
Degree Days  
Heating Degree Days 4 0  
Month to date heating degree days 0  
Since 1 July heating degree days 2  
Cooling Degree Days 0 9  
Month to date cooling degree days 58  
Year to date cooling degree days 2854  
Growing Degree Days 11 (Base 50)    
Moisture  
Dew Point 55 °F    
Average Humidity 78    
Maximum Humidity 88    
Minimum Humidity 68    
Precipitation  
Precipitation 0.00 in 0.15 in 2.66 in (1930)
Month to date precipitation 0.86  
Year to date precipitation 29.56  
Sea Level Pressure  
Sea Level Pressure 30.08 in    
Wind  
Wind Speed 6 mph (North)    
Max Wind Speed 16 mph    
Max Gust Speed 21 mph    
Visibility 10 miles    
Events      
T = Trace of Precipitation, MM = Missing Value Source: NWS Daily Summary

Daily Weather History Graph

Daily Weather History Graph

Search for Another Location

Airport:

Trip Planner

Search our weather history database for the weather conditions in past years. The results will help you decide how hot, cold, wet, or windy it might be!

Date:

Astronomy

Oct. 06, 2012 Rise Set
Actual Time 7:23 AM CDT 7:04 PM CDT
Civil Twilight 6:59 AM CDT 7:29 PM CDT
Nautical Twilight 6:31 AM CDT 7:56 PM CDT
Astronomical Twilight 6:03 AM CDT 8:24 PM CDT
Moon 11:38 PM CDT (10/6) 1:01 PM CDT (10/6)
Length of Visible Light 12h 29m
Length of Day
11h 41m
Waning Gibbous, 65% of the Moon is Illuminated
Oct 6
Waning Gibbous
Oct 8
Last Quarter
Oct 15
New
Oct 21
First Quarter
Oct 29
Full

Hourly Weather History & Observations

Time (CDT) Temp. Dew Point Humidity Pressure Visibility Wind Dir Wind Speed Gust Speed Precip Events Conditions
12:15 AM 69.8 °F 64.4 °F 83% 30.00 in 10.0 mi Calm Calm - N/A   Clear
12:35 AM 69.8 °F 64.4 °F 83% 30.00 in 10.0 mi Calm Calm - N/A   Clear
12:55 AM 69.8 °F 64.4 °F 83% 30.00 in 10.0 mi SE 3.5 mph - N/A   Clear
1:15 AM 69.8 °F 64.4 °F 83% 30.00 in 10.0 mi SE 3.5 mph - N/A   Clear
1:55 AM 68.0 °F 64.4 °F 88% 30.01 in 10.0 mi Calm Calm - N/A   Clear
2:35 AM 69.8 °F 64.4 °F 83% 30.02 in 10.0 mi Calm Calm - N/A   Mostly Cloudy
2:55 AM 69.8 °F 64.4 °F 83% 30.03 in 10.0 mi North 9.2 mph - N/A   Overcast
3:15 AM 68.0 °F 60.8 °F 78% 30.03 in 10.0 mi NNE 6.9 mph - N/A   Overcast
3:35 AM 66.2 °F 59.0 °F 78% 30.03 in 10.0 mi North 4.6 mph - N/A   Overcast
3:55 AM 66.2 °F 59.0 °F 78% 30.03 in 10.0 mi North 5.8 mph - N/A   Overcast
4:15 AM 66.2 °F 57.2 °F 73% 30.03 in 10.0 mi North 4.6 mph - N/A   Overcast
4:35 AM 66.2 °F 59.0 °F 78% 30.03 in 10.0 mi North 5.8 mph - N/A   Overcast
4:55 AM 64.4 °F 59.0 °F 83% 30.04 in 10.0 mi North 4.6 mph - N/A   Overcast
5:15 AM 64.4 °F 57.2 °F 77% 30.05 in 10.0 mi North 6.9 mph - N/A   Overcast
5:35 AM 64.4 °F 57.2 °F 77% 30.05 in 10.0 mi North 4.6 mph - N/A   Overcast
5:55 AM 62.6 °F 55.4 °F 77% 30.06 in 10.0 mi North 6.9 mph - N/A   Mostly Cloudy
6:15 AM 62.6 °F 55.4 °F 77% 30.06 in 10.0 mi North 6.9 mph - N/A   Mostly Cloudy
6:35 AM 60.8 °F 55.4 °F 82% 30.07 in 10.0 mi NNW 6.9 mph - N/A   Mostly Cloudy
6:55 AM 60.8 °F 53.6 °F 77% 30.07 in 10.0 mi NNW 6.9 mph - N/A   Scattered Clouds
7:15 AM 60.8 °F 53.6 °F 77% 30.07 in 10.0 mi North 6.9 mph - N/A   Clear
7:35 AM 59.0 °F 53.6 °F 82% 30.07 in 10.0 mi North 8.1 mph - N/A   Clear
7:55 AM 59.0 °F 53.6 °F 82% 30.08 in 10.0 mi North 5.8 mph - N/A   Scattered Clouds
8:15 AM 60.8 °F 53.6 °F 77% 30.09 in 10.0 mi North 8.1 mph - N/A   Mostly Cloudy
8:35 AM 60.8 °F 53.6 °F 77% 30.09 in 10.0 mi North 6.9 mph - N/A   Mostly Cloudy
8:55 AM 60.8 °F 53.6 °F 77% 30.10 in 10.0 mi North 6.9 mph - N/A   Scattered Clouds
9:15 AM 62.6 °F 53.6 °F 72% 30.10 in 10.0 mi NNE 4.6 mph - N/A   Overcast
9:35 AM 62.6 °F 53.6 °F 72% 30.11 in 10.0 mi North 6.9 mph - N/A   Overcast
9:55 AM 62.6 °F 53.6 °F 72% 30.11 in 10.0 mi North 8.1 mph - N/A   Overcast
10:15 AM 62.6 °F 53.6 °F 72% 30.11 in 10.0 mi North 9.2 mph - N/A   Overcast
10:35 AM 62.6 °F 53.6 °F 72% 30.11 in 10.0 mi North 8.1 mph - N/A   Overcast
10:55 AM 62.6 °F 53.6 °F 72% 30.11 in 10.0 mi NNW 8.1 mph - N/A   Overcast
11:15 AM 62.6 °F 53.6 °F 72% 30.11 in 10.0 mi North 9.2 mph - N/A   Overcast
11:35 AM 64.4 °F 55.4 °F 73% 30.11 in 10.0 mi North 5.8 mph - N/A   Overcast
11:55 AM 64.4 °F 55.4 °F 73% 30.11 in 10.0 mi NNW 6.9 mph - N/A   Overcast
12:15 PM 64.4 °F 55.4 °F 73% 30.10 in 10.0 mi NNW 9.2 mph - N/A   Overcast
12:35 PM 64.4 °F 55.4 °F 73% 30.10 in 10.0 mi NNW 8.1 mph - N/A   Overcast
12:55 PM 64.4 °F 55.4 °F 73% 30.09 in 10.0 mi NW 11.5 mph - N/A   Overcast
1:15 PM 66.2 °F 55.4 °F 68% 30.09 in 10.0 mi NW 10.4 mph - N/A   Overcast
1:35 PM 66.2 °F 55.4 °F 68% 30.09 in 10.0 mi NNW 12.7 mph - N/A   Overcast
1:55 PM 64.4 °F 55.4 °F 73% 30.08 in 10.0 mi NNW 11.5 mph - N/A   Overcast
2:15 PM 64.4 °F 55.4 °F 73% 30.07 in 10.0 mi NNW 11.5 mph - N/A   Overcast
2:35 PM 64.4 °F 55.4 °F 73% 30.07 in 10.0 mi NNW 9.2 mph - N/A   Overcast
2:55 PM 64.4 °F 55.4 °F 73% 30.06 in 10.0 mi NNW 10.4 mph - N/A   Overcast
3:15 PM 64.4 °F 55.4 °F 73% 30.06 in 10.0 mi North 10.4 mph - N/A   Overcast
3:35 PM 64.4 °F 55.4 °F 73% 30.06 in 10.0 mi North 9.2 mph - N/A   Overcast
3:55 PM 64.4 °F 55.4 °F 73% 30.06 in 10.0 mi North 10.4 mph - N/A   Overcast
4:15 PM 64.4 °F 55.4 °F 73% 30.06 in 10.0 mi NNW 11.5 mph - N/A   Overcast
4:35 PM 62.6 °F 55.4 °F 77% 30.05 in 10.0 mi North 10.4 mph - N/A   Overcast
4:55 PM 62.6 °F 55.4 °F 77% 30.05 in 10.0 mi North 11.5 mph - N/A   Overcast
5:15 PM 62.6 °F 55.4 °F 77% 30.05 in 10.0 mi North 12.7 mph - N/A   Overcast
5:35 PM 62.6 °F 55.4 °F 77% 30.06 in 10.0 mi North 13.8 mph - N/A   Overcast
5:55 PM 60.8 °F 53.6 °F 77% 30.06 in 10.0 mi NNW 15.0 mph - N/A   Overcast
6:15 PM 60.8 °F 53.6 °F 77% 30.07 in 10.0 mi NNW 15.0 mph 18.4 mph N/A   Overcast
6:35 PM 59.0 °F 53.6 °F 82% 30.08 in 10.0 mi North 13.8 mph 19.6 mph N/A   Overcast
6:55 PM 59.0 °F 53.6 °F 82% 30.08 in 10.0 mi NNW 16.1 mph 19.6 mph N/A   Overcast
7:15 PM 57.2 °F 53.6 °F 88% 30.09 in 10.0 mi North 12.7 mph 18.4 mph N/A   Overcast
7:35 PM 57.2 °F 53.6 °F 88% 30.09 in 10.0 mi North 10.4 mph - N/A   Overcast
7:55 PM 57.2 °F 53.6 °F 88% 30.10 in 10.0 mi North 11.5 mph - N/A   Overcast
8:15 PM 57.2 °F 53.6 °F 88% 30.11 in 10.0 mi North 11.5 mph 16.1 mph N/A   Overcast
8:35 PM 57.2 °F 53.6 °F 88% 30.11 in 10.0 mi North 15.0 mph 19.6 mph N/A   Overcast
8:55 PM 55.4 °F 51.8 °F 88% 30.12 in 10.0 mi North 13.8 mph 18.4 mph N/A   Overcast
9:15 PM 55.4 °F 51.8 °F 88% 30.13 in 10.0 mi NNE 11.5 mph - N/A   Overcast
9:35 PM 55.4 °F 51.8 °F 88% 30.13 in 10.0 mi North 11.5 mph - N/A   Overcast
9:55 PM 55.4 °F 50.0 °F 82% 30.14 in 10.0 mi NNE 15.0 mph 18.4 mph N/A   Overcast
10:15 PM 55.4 °F 48.2 °F 77% 30.14 in 10.0 mi North 11.5 mph 20.7 mph N/A   Overcast
10:35 PM 55.4 °F 48.2 °F 77% 30.15 in 10.0 mi North 9.2 mph 20.7 mph N/A   Overcast
11:15 PM 53.6 °F 46.4 °F 77% 30.16 in 10.0 mi NNE 10.4 mph 17.3 mph N/A   Overcast
11:35 PM 53.6 °F 46.4 °F 77% 30.16 in 10.0 mi NNE 10.4 mph - N/A   Overcast
11:55 PM 53.6 °F 46.4 °F 77% 30.17 in 10.0 mi NNE 8.1 mph - N/A   Overcast